Regional Weather Roundup
Issued by NWS Upton, NY

Current Version | Previous Version | Text Only | Print | Product List | Glossary On
Versions: 1 2 3 4 5 6 7 8 9 10 11 12 13 14 15 16 17 18 19 20 21 22 23 24 25 26 27 28 29 30 31 32 33 34 35 36 37 38 39 40 41 42 43 44 45 46 47 48 49 50
559 ASUS41 KOKX 080804 RWROKX REGIONAL WEATHER ROUNDUP NATIONAL WEATHER SERVICE NEW YORK NY 300 AM EST MON FEB 08 2016 NOTE: "FAIR" INDICATES FEW OR NO CLOUDS BELOW 12,000 FEET WITH NO SIGNIFICANT WEATHER AND/OR OBSTRUCTIONS TO VISIBILITY. NYZ071-072-176-178-NJZ106-104-080900- NEW YORK CITY METRO AREA CITY SKY/WX TMP DP RH WIND PRES REMARKS CENTRAL PARK MOCLDY 38 24 57 NE13G23 29.79F WCI 30 LAGUARDIA APRT CLOUDY 38 27 64 NE17 29.77F WCI 28 KENNEDY INTL CLOUDY 38 27 64 NE22G29 29.77F WCI 27 NEWARK/LIBERTY CLOUDY 37 25 61 N17G24 29.78F WCI 27 BRNX BOT. GARD N/A 36 27 69 N9 29.79F WCI 29 TETERBORO CLOUDY 37 23 56 N9G17 29.78F WCI 30 $$ NYZ177-179-078>081-080900- LONG ISLAND NEW YORK CITY SKY/WX TMP DP RH WIND PRES REMARKS FARMINGDALE MOCLDY 38 29 70 NE18G30 29.75F WCI 28 ISLIP CLOUDY 37 30 75 NE23G33 29.72F WCI 26 SHIRLEY CLOUDY 38 31 76 NE9G18 29.75F WCI 31 RIVERHEAD N/A 37 32 81 E10 29.72F WCI 30 WESTHAMPTON CLOUDY 38 31 76 NE22G35 29.74F WCI 27 EAST HAMPTON CLOUDY 37 31 79 NE17G24 29.75F WCI 28 MONTAUK POINT N/A 40 31 70 NE17G31 29.75F WCI 31 $$ NYZ052-065-067-080900- HUDSON VALLEY CITY SKY/WX TMP DP RH WIND PRES REMARKS WHITE PLAINS CLOUDY 35 26 69 NE13 29.77F WCI 26 NEWBURGH NOT AVBL MONTGOMERY MOCLDY 33 23 66 NE13 29.83F WCI 24 POUGHKEEPSIE MOCLDY 33 23 66 N7 29.85F WCI 27 ALBANY MOCLDY 27 20 75 N3 29.92F $$ NJZ001-105-106-008-010-013-015-019>022-104-080900- NEW JERSEY CITY SKY/WX TMP DP RH WIND PRES REMARKS NEWARK/LIBERTY CLOUDY 37 25 61 N17G24 29.78F WCI 27 TETERBORO CLOUDY 37 23 56 N9G17 29.78F WCI 30 CALDWELL MOCLDY 37 22 54 NE8G18 29.79F WCI 31 MORRISTOWN CLOUDY 36 21 55 N10G16 29.80F WCI 28 SOMERVILLE CLOUDY 38 21 50 N8G21 29.76F WCI 32 SUSSEX CLOUDY 34 22 61 NE10 29.81F WCI 26 ANDOVER N/A 32 22 66 NE6 29.79F WCI 26 TRENTON MOCLDY 37 21 52 NE14 29.74F WCI 28 MILLVILLE CLOUDY 39 28 64 N20 29.68F WCI 29 ATLANTIC CITY CLOUDY 39 31 72 N18G26 29.66F WCI 30 WRIGHTSTOWN CLOUDY 37 32 84 N15 29.70F WCI 28 TOMS RIVER CLOUDY 37 27 65 NE17G24 29.72F WCI 28 BELMAR CLOUDY 37 23 56 NE17G23 29.72F WCI 28 $$ PAZ047>061-062-071-080900- EASTERN PENNSYLVANIA CITY SKY/WX TMP DP RH WIND PRES REMARKS PHILADELPHIA CLOUDY 39 22 50 N18G29 29.75F WCI 30 ALLENTOWN CLOUDY 35 20 54 NE7 29.79F WCI 29 SCRANTON CLOUDY 34 20 56 NE7 29.79F WCI 28 $$ CTZ002-004>006-009-010-012-RIZ004-006-007-MAZ004-011-015-080900- SOUTHERN NEW ENGLAND IN CT CITY SKY/WX TMP DP RH WIND PRES REMARKS BRADLEY INTL CLOUDY 35 26 69 N17 29.86F WCI 25 HARTFORD CLOUDY 36 27 69 N10 29.84F WCI 28 DANBURY CLOUDY 35 25 66 NE13G20 29.82F WCI 26 WTRBRY/OXFORD CLOUDY 34 19 55 NE14G21 29.79F WCI 24 BRIDGEPORT MOCLDY 37 28 70 N17G26 29.79F WCI 27 MERIDEN CLOUDY 36 26 67 N15G22 29.82F WCI 27 NEW HAVEN MOCLDY 35 28 75 N15 29.78F WCI 25 CHESTER PTSUNNY 36 30 80 NE18G24 29.77F WCI 25 GROTON CLOUDY 37 33 85 NE23G33 29.76F WCI 26 WILLIMANTIC CLOUDY 37 28 70 NE12 29.82F WCI 29 IN RI CITY SKY/WX TMP DP RH WIND PRES REMARKS PROVIDENCE CLOUDY 37 28 70 NE20G30 29.84F WCI 27 BLOCK ISLAND CLOUDY 39 32 75 NE25G40 29.74F WCI 28 WESTERLY CLOUDY 37 30 75 NE13G23 29.77F WCI 29 IN MA CITY SKY/WX TMP DP RH WIND PRES REMARKS BOSTON CLOUDY 36 26 67 NE31G41 29.93F WCI 23 WORCESTER CLOUDY 30 26 85 NE14G24 29.84F WCI 19 WESTFIELD CLOUDY 33 25 72 N10 29.87F WCI 25 PROVINCETOWN CLOUDY 37 26 64 NE29G39 29.89F WCI 25 NANTUCKET LGT RAIN 39 31 72 NE37G49 29.75F WCI 26 $$ ANZ330-335-338-340-345-350-353-355-080900- COASTAL MARINE OBSERVATIONS STATION/POSITION TIME SKY/WX TEMP WIND PRES VSBY WAVE AIR SEA DIR/SP/G HT/PER (UTC) (F) (DEG/KT/KT) (MB) (MI) (FT/S) NY HARB ENTRANCE 0650 40 44 30/ 27/ 31 1006.9 6/ 7 4S FIRE IS NOT AVBL 20S FIRE ISLAND 0650 42 44 40/ 29/ 35 1005.6 10/ 7 GREAT SOUTH BAY NOT AVBL 23SW MTP 0750 42 45 50/ 35/ 43 1004.5 11/ 7 HUDSON CANYON 0650 44 50 1001.8 11/ 8 KINGS POINT 0700 38 39 80/ 10/ 17 1009.1 EXECUTION ROCKS NOT AVBL CENTRAL LI SOUND 0730 39 50/ 21/ 25 N/A 3/ 4 EASTERN LI SOUND 0700 40 42 40/ 17/ 25 N/A ROBBINS REEF 0700 40 40/ 17/ 21 1008.5 $$ >>>>>>>>>>>>>>>>>>>>>>>>>>>> KEY <<<<<<<<<<<<<<<<<<<<<<<<<<< > < > SKY/WX - SKY CONDITION/PRESENT WEATHER < > TMP - TEMPERATURE IN FAHRENHEIT < > DP - DEWPOINT IN FAHRENHEIT < > RH - RELATIVE HUMIDITY IN PERCENT < > WIND - DIRECTION AND SPEED IN MPH < > PRES - MEAN SEA LEVEL PRESSURE IN INCHES OF HG < > WCI - WIND CHILL INDEX < > VSB - VISIBILITY IN MILES < > HX - HEAT INDEX < > TC - TEMPERATURE IN CELSIUS < > VRB - VARIABLE WIND DIRECTION < > < >>>>>>>>>>>>>>>>>>>>>>>>>>>> KEY <<<<<<<<<<<<<<<<<<<<<<<<<<<

USA.gov is the U.S. government's official web portal to all federal, state and local government web resources and services.